• In Hungary
  • List of Countries
  • For 7 days
  • Water Temperature
  • Satellite Maps
  • Weather Map
  • News
  • Weather Widgets
  • user-avatar
    Login

    Hourly Weather Gridino

    Today, 16 July, Monday

    Time Temperature Precipitation Wind Pressure Humidity
    00:00 +20°C° 0 mm 1 mps 743 mmHg 95%
    01:00 +18°C° 0 mm 2 mps 743 mmHg 96%
    02:00 +18°C° 0 mm 2 mps 743 mmHg 96%
    03:00 +18°C° 0.1 mm 2 mps 743 mmHg 96%
    04:00 +18°C° 0.1 mm 2 mps 743 mmHg 96%
    05:00 +19°C° 0.1 mm 2 mps 743 mmHg 95%
    06:00 +20°C° 0.1 mm 2 mps 743 mmHg 90%
    07:00 +22°C° 0.1 mm 3 mps 743 mmHg 86%
    08:00 +24°C° 0.1 mm 3 mps 743 mmHg 81%
    09:00 +25°C° 0.5 mm 3 mps 743 mmHg 78%
    10:00 +26°C° 0.5 mm 3 mps 743 mmHg 75%
    11:00 +27°C° 0.5 mm 4 mps 743 mmHg 72%
    12:00 +28°C° 0.3 mm 4 mps 743 mmHg 69%
    13:00 +28°C° 0.3 mm 4 mps 743 mmHg 67%
    14:00 +29°C° 0.3 mm 4 mps 742 mmHg 65%
    15:00 +28°C° 0.2 mm 4 mps 742 mmHg 67%
    16:00 +28°C° 0.2 mm 3 mps 742 mmHg 69%
    17:00 +28°C° 0.2 mm 3 mps 742 mmHg 71%
    18:00 +26°C° 0.1 mm 3 mps 742 mmHg 75%
    19:00 +25°C° 0.1 mm 3 mps 742 mmHg 80%
    20:00 +22°C° 0.1 mm 3 mps 742 mmHg 85%
    21:00 +22°C° 0.1 mm 3 mps 742 mmHg 87%
    22:00 +21°C° 0.1 mm 3 mps 742 mmHg 89%
    23:00 +20°C° 0.1 mm 3 mps 742 mmHg 91%

    Tomorrow, 17 July, Tuesday

    Time Temperature Precipitation Wind Pressure Humidity
    00:00 +20°C° 0 mm 3 mps 742 mmHg 93%
    01:00 +20°C° 0 mm 3 mps 742 mmHg 95%
    02:00 +19°C° 0 mm 3 mps 742 mmHg 96%
    03:00 +19°C° 0 mm 3 mps 742 mmHg 95%
    04:00 +20°C° 0 mm 3 mps 742 mmHg 94%
    05:00 +20°C° 0 mm 4 mps 742 mmHg 93%
    06:00 +21°C° 0 mm 4 mps 742 mmHg 87%
    07:00 +23°C° 0 mm 4 mps 742 mmHg 81%
    08:00 +25°C° 0 mm 5 mps 742 mmHg 75%
    09:00 +26°C° 0 mm 5 mps 741 mmHg 71%
    10:00 +28°C° 0 mm 5 mps 741 mmHg 67%
    11:00 +29°C° 0 mm 6 mps 741 mmHg 62%
    12:00 +29°C° 0.1 mm 6 mps 741 mmHg 61%
    13:00 +29°C° 0.1 mm 6 mps 741 mmHg 60%
    14:00 +30°C° 0.1 mm 6 mps 740 mmHg 58%
    15:00 +29°C° 0.1 mm 6 mps 740 mmHg 61%
    16:00 +28°C° 0.1 mm 6 mps 740 mmHg 64%
    17:00 +28°C° 0.1 mm 5 mps 740 mmHg 66%
    18:00 +26°C° 0.1 mm 5 mps 740 mmHg 71%
    19:00 +25°C° 0.1 mm 4 mps 740 mmHg 76%
    20:00 +23°C° 0.1 mm 4 mps 740 mmHg 81%
    21:00 +22°C° 0 mm 4 mps 740 mmHg 82%
    22:00 +22°C° 0 mm 4 mps 740 mmHg 83%
    23:00 +21°C° 0 mm 4 mps 739 mmHg 84%

    Day after tomorrow, 18 July, Wednesday

    Time Temperature Precipitation Wind Pressure Humidity
    00:00 +21°C° 0 mm 4 mps 739 mmHg 86%
    01:00 +20°C° 0 mm 4 mps 739 mmHg 87%
    02:00 +20°C° 0 mm 4 mps 739 mmHg 89%
    03:00 +20°C° 0.2 mm 4 mps 739 mmHg 90%
    04:00 +20°C° 0.2 mm 4 mps 739 mmHg 91%
    05:00 +20°C° 0.2 mm 4 mps 739 mmHg 92%
    06:00 +20°C° 0.2 mm 5 mps 739 mmHg 90%
    07:00 +21°C° 0.2 mm 5 mps 739 mmHg 88%
    08:00 +22°C° 0.2 mm 5 mps 739 mmHg 86%
    09:00 +23°C° 0.2 mm 5 mps 739 mmHg 81%
    10:00 +24°C° 0.2 mm 6 mps 739 mmHg 77%
    11:00 +26°C° 0.2 mm 6 mps 739 mmHg 72%
    12:00 +24°C° 0.6 mm 6 mps 739 mmHg 74%
    13:00 +25°C° 0.6 mm 5 mps 739 mmHg 76%
    14:00 +23°C° 0.6 mm 5 mps 739 mmHg 78%
    15:00 +23°C° 0.5 mm 5 mps 739 mmHg 82%
    16:00 +22°C° 0.5 mm 5 mps 739 mmHg 85%
    17:00 +21°C° 0.5 mm 5 mps 739 mmHg 89%
    18:00 +21°C° 0.1 mm 5 mps 738 mmHg 90%
    19:00 +20°C° 0.1 mm 4 mps 738 mmHg 91%
    20:00 +20°C° 0.1 mm 4 mps 738 mmHg 92%
    21:00 +20°C° 0 mm 4 mps 738 mmHg 92%
    22:00 +19°C° 0 mm 4 mps 738 mmHg 93%
    23:00 +19°C° 0 mm 4 mps 738 mmHg 94%

    19 July, Thursday

    Time Temperature Precipitation Wind Pressure Humidity
    00:00 +19°C° 0.1 mm 4 mps 738 mmHg 94%
    01:00 +19°C° 0.1 mm 4 mps 738 mmHg 94%
    02:00 +19°C° 0.1 mm 4 mps 738 mmHg 94%
    03:00 +19°C° 0.1 mm 4 mps 738 mmHg 93%
    04:00 +19°C° 0.1 mm 4 mps 738 mmHg 93%
    05:00 +19°C° 0.1 mm 4 mps 738 mmHg 93%
    06:00 +20°C° 0.2 mm 4 mps 738 mmHg 92%
    07:00 +20°C° 0.2 mm 4 mps 738 mmHg 91%
    08:00 +20°C° 0.2 mm 5 mps 738 mmHg 90%
    09:00 +20°C° 0.4 mm 5 mps 738 mmHg 90%
    10:00 +21°C° 0.4 mm 5 mps 739 mmHg 89%
    11:00 +21°C° 0.4 mm 5 mps 739 mmHg 88%
    12:00 +21°C° 0.5 mm 5 mps 739 mmHg 88%
    13:00 +21°C° 0.5 mm 4 mps 738 mmHg 87%
    14:00 +22°C° 0.5 mm 4 mps 738 mmHg 87%
    15:00 +22°C° 0.7 mm 4 mps 738 mmHg 88%
    16:00 +22°C° 0.7 mm 4 mps 738 mmHg 88%
    17:00 +22°C° 0.7 mm 4 mps 738 mmHg 89%
    18:00 +21°C° 0.2 mm 4 mps 738 mmHg 91%
    19:00 +20°C° 0.2 mm 3 mps 738 mmHg 94%
    20:00 +20°C° 0.2 mm 3 mps 738 mmHg 96%
    21:00 +19°C° 0.1 mm 3 mps 738 mmHg 97%
    22:00 +19°C° 0.1 mm 3 mps 738 mmHg 97%
    23:00 +19°C° 0.1 mm 3 mps 738 mmHg 98%

    20 July, Friday

    Time Temperature Precipitation Wind Pressure Humidity
    00:00 +19°C° 0.2 mm 3 mps 738 mmHg 98%
    01:00 +19°C° 0.2 mm 3 mps 738 mmHg 98%
    02:00 +19°C° 0.2 mm 2 mps 738 mmHg 98%
    03:00 +19°C° 0.1 mm 2 mps 738 mmHg 98%
    04:00 +19°C° 0.1 mm 2 mps 738 mmHg 98%
    05:00 +19°C° 0.1 mm 2 mps 738 mmHg 98%
    06:00 +20°C° 0.2 mm 2 mps 738 mmHg 97%
    07:00 +20°C° 0.2 mm 2 mps 738 mmHg 97%
    08:00 +20°C° 0.2 mm 2 mps 738 mmHg 96%
    09:00 +23°C° 0.2 mm 2 mps 738 mmHg 92%
    10:00 +24°C° 0.2 mm 2 mps 738 mmHg 88%
    11:00 +25°C° 0.2 mm 2 mps 739 mmHg 85%
    12:00 +25°C° 0.6 mm 2 mps 739 mmHg 83%
    13:00 +26°C° 0.6 mm 3 mps 739 mmHg 82%
    14:00 +27°C° 0.6 mm 3 mps 738 mmHg 80%
    15:00 +26°C° 0.9 mm 3 mps 738 mmHg 83%
    16:00 +26°C° 0.9 mm 2 mps 738 mmHg 85%
    17:00 +26°C° 0.9 mm 2 mps 738 mmHg 88%
    18:00 +25°C° 0.2 mm 2 mps 738 mmHg 90%
    19:00 +24°C° 0.2 mm 2 mps 738 mmHg 92%
    20:00 +23°C° 0.2 mm 2 mps 738 mmHg 94%
    21:00 +21°C° 0 mm 2 mps 739 mmHg 95%
    22:00 +21°C° 0 mm 2 mps 739 mmHg 96%
    23:00 +20°C° 0 mm 2 mps 739 mmHg 96%

    21 July, Saturday

    Time Temperature Precipitation Wind Pressure Humidity
    00:00 +20°C° 0 mm 2 mps 739 mmHg 97%
    01:00 +20°C° 0 mm 2 mps 739 mmHg 97%
    02:00 +19°C° 0 mm 2 mps 739 mmHg 97%
    03:00 +19°C° 0 mm 2 mps 739 mmHg 97%
    04:00 +20°C° 0 mm 2 mps 739 mmHg 96%
    05:00 +20°C° 0 mm 2 mps 739 mmHg 96%
    06:00 +21°C° 0 mm 2 mps 739 mmHg 91%
    07:00 +24°C° 0 mm 2 mps 739 mmHg 86%
    08:00 +25°C° 0 mm 3 mps 739 mmHg 81%
    09:00 +26°C° 0.2 mm 3 mps 739 mmHg 77%
    10:00 +27°C° 0.2 mm 3 mps 739 mmHg 72%
    11:00 +28°C° 0.2 mm 3 mps 739 mmHg 67%
    12:00 +28°C° 0.6 mm 3 mps 739 mmHg 69%
    13:00 +28°C° 0.6 mm 3 mps 739 mmHg 72%
    14:00 +28°C° 0.6 mm 3 mps 739 mmHg 74%
    15:00 +28°C° 0.5 mm 3 mps 739 mmHg 74%
    16:00 +28°C° 0.5 mm 3 mps 739 mmHg 75%
    17:00 +28°C° 0.5 mm 2 mps 739 mmHg 76%
    18:00 +26°C° 0.2 mm 2 mps 739 mmHg 81%
    19:00 +25°C° 0.2 mm 2 mps 739 mmHg 86%
    20:00 +23°C° 0.2 mm 2 mps 738 mmHg 91%
    21:00 +21°C° 0 mm 2 mps 738 mmHg 92%
    22:00 +21°C° 0 mm 2 mps 738 mmHg 94%
    23:00 +20°C° 0 mm 2 mps 738 mmHg 95%
    Show more